GFSNW_850_temp_012.txt.gz
Temp
-0 -1 -1 -1 0 1 1 1 2 2 2 2 2 4 6 7 7 7 8 9 9 9 9 8 8 9 9 8 8 7 9 8 6 7 10 10 10 9 8 6 7 7 8 10
-1 -1 -1 -0 0 1 2 1 2 2 3 4 4 4 7 7 7 8 9 9 9 9 8 8 9 8 8 7 9 9 8 6 6 9 8 9 7 9 9 7 7 7 7 11
-1 -1 -1 -0 0 1 2 1 3 2 3 4 6 7 7 7 7 8 8 8 9 9 9 9 8 8 8 8 8 7 8 8 7 9 10 10 6 7 7 6 6 9 9 10
-1 -1 -0 1 1 2 2 2 3 3 4 5 8 8 8 8 8 8 9 8 9 9 8 8 8 8 8 7 7 8 8 5 6 7 8 7 6 7 6 5 7 7 10 11
-1 -1 -0 1 1 2 2 2 3 4 5 6 8 7 7 8 8 8 8 9 9 9 9 9 9 9 8 9 8 8 8 6 6 6 7 8 6 7 6 6 6 8 9 9
-1 -0 -0 -0 0 1 1 1 2 3 5 6 8 7 8 8 8 8 8 9 8 8 8 9 9 9 8 9 9 8 6 5 6 7 10 9 8 7 7 7 6 8 7 10
-1 -1 -0 -1 0 0 1 1 2 3 5 7 8 7 8 8 8 8 7 8 8 8 8 8 8 8 9 8 8 9 6 5 5 6 7 10 10 9 8 8 8 8 9 10
-1 -1 -1 -1 -0 1 1 2 2 3 6 7 7 8 8 7 7 8 8 7 8 8 8 8 8 8 8 9 8 8 8 7 7 8 8 11 11 9 9 9 10 11 10 10
-1 -1 -1 -1 -0 0 1 2 2 3 5 7 7 8 7 8 8 7 7 6 7 7 8 8 7 9 10 10 8 7 7 7 7 7 8 10 11 11 9 10 12 10 9 10
-2 -1 -1 -1 0 0 1 1 1 2 3 6 7 8 7 7 8 8 7 6 6 6 8 8 7 8 9 10 10 8 7 6 7 7 8 11 11 10 9 12 12 9 8 10
-2 -2 -1 -0 -0 0 -0 0 1 0 2 4 6 7 7 6 8 8 7 7 6 6 6 7 7 8 10 9 10 10 11 9 8 9 9 11 10 10 12 11 9 8 8 7
-2 -3 -3 -1 -1 -1 -1 -1 0 0 0 4 6 7 7 8 8 8 6 7 7 7 6 6 6 8 9 10 11 9 10 11 12 11 13 12 10 11 10 7 7 7 7 7
-2 -3 -3 -3 -2 -1 -1 -1 -0 1 2 5 6 6 7 7 7 7 7 6 7 6 7 6 6 7 7 10 10 10 10 9 11 11 13 11 10 9 8 7 5 6 6 6
-3 -3 -3 -3 -3 -3 -2 -1 -0 -2 0 3 6 6 6 7 7 7 7 7 6 6 5 6 6 6 8 10 9 10 11 9 11 11 12 12 10 8 7 7 6 5 5 6
-3 -3 -3 -3 -3 -3 -2 0 1 -0 0 3 5 5 6 6 7 6 6 6 6 5 5 5 6 8 5 7 7 9 9 12 12 14 11 11 10 7 7 6 5 4 6 4
-3 -3 -3 -3 -3 -3 -3 -0 -0 1 1 1 5 5 5 5 5 6 5 5 5 5 5 6 7 8 7 8 10 11 10 9 10 13 10 9 8 7 7 7 5 4 5 5
-3 -3 -3 -3 -3 -3 -3 -1 -0 0 1 1 4 4 5 5 5 4 4 4 5 5 5 5 6 7 6 6 9 12 10 10 10 9 9 8 7 7 6 7 5 5 5 5
-3 -3 -3 -2 -2 -2 -2 -0 -1 0 1 3 4 5 5 5 5 5 4 5 5 5 5 6 6 5 5 7 9 10 10 9 9 9 8 8 8 7 6 6 5 5 5 5
-4 -2 -1 -1 -2 -2 -1 -1 -0 0 1 3 4 4 5 5 5 5 5 5 6 6 6 6 5 7 6 9 10 9 9 9 9 7 7 8 7 6 5 5 5 6 5 5
-3 -1 -1 -1 -1 -1 -1 0 0 1 2 3 5 5 5 4 5 5 5 5 6 5 6 4 5 6 8 9 8 9 9 9 7 6 4 5 5 5 5 5 5 5 5 5
-3 -2 -2 -1 -0 -0 0 -0 1 3 4 4 5 5 6 4 5 6 4 5 3 5 6 5 6 8 8 7 7 7 8 9 9 7 8 8 8 6 5 5 5 5 5 5
-3 -3 -3 -1 -1 -0 1 1 2 3 4 4 4 4 4 4 4 5 3 4 4 5 3 4 6 7 6 6 5 6 6 8 9 7 7 7 7 7 6 5 5 5 5 5
-3 -3 -2 -1 -1 2 2 2 3 3 1 2 3 3 4 4 4 3 3 4 5 3 4 5 6 5 5 5 4 4 6 8 8 8 7 7 6 6 7 6 5 5 5 4
-3 -3 -2 0 1 1 1 0 1 0 0 1 2 3 3 3 3 3 4 4 3 4 4 5 5 5 4 4 4 4 5 6 7 7 7 6 6 5 5 6 6 6 5 4
-3 -3 -1 -1 -2 -1 -1 -1 -1 0 0 1 2 3 3 2 3 3 3 3 4 5 6 5 4 4 4 4 4 4 4 4 5 7 6 6 5 5 5 5 5 5 5 4
-2 -3 -2 -1 -2 -2 -1 -2 -1 -0 0 2 2 2 3 4 3 2 3 3 4 6 3 4 5 5 4 4 4 4 4 4 5 5 4 4 4 5 5 4 4 4 4 3
-3 -2 -2 -2 -3 -4 -2 -2 -2 -1 -0 1 1 3 4 0 2 2 2 3 3 0 2 2 3 3 4 4 4 4 4 4 4 4 3 3 3 4 4 3 3 3 2 2

GFSNW_850_temp_018.txt.gz
Temp
-1 -1 0 1 0 2 3 1 2 2 2 3 3 4 4 8 8 9 11 12 12 10 9 10 10 11 11 12 11 9 11 9 5 7 10 10 9 8 8 7 6 6 6 8
-1 -1 1 2 1 2 2 2 2 2 2 4 5 4 6 8 8 10 10 11 12 11 10 10 11 11 10 11 11 10 10 7 5 6 9 10 9 9 9 9 8 6 6 9
-1 -1 1 2 2 3 2 2 3 3 3 4 5 5 7 6 8 10 11 11 12 11 11 12 10 10 10 10 10 10 10 9 6 6 7 8 5 7 9 8 6 7 8 9
-1 -1 0 2 3 3 3 3 5 5 6 7 7 8 7 8 9 10 11 11 11 11 10 10 10 10 9 10 9 10 9 5 6 7 8 8 7 7 8 6 6 7 8 8
-1 -0 -0 2 3 3 2 3 3 5 8 8 8 9 9 9 10 10 10 11 11 11 11 10 10 10 10 9 9 8 8 6 5 6 7 7 7 8 8 9 7 7 7 7
-1 -1 -0 1 2 2 2 2 2 3 8 9 9 10 10 10 10 9 10 11 11 10 10 10 10 11 11 10 9 8 7 6 5 6 9 8 8 9 9 9 9 8 8 8
-1 -2 0 1 1 1 1 1 2 3 7 9 10 10 10 10 10 9 10 10 10 8 9 9 9 10 10 10 9 9 6 5 5 6 6 8 11 10 10 9 10 10 11 9
1 -1 -0 0 1 1 1 1 1 2 4 9 10 10 10 10 9 9 9 9 8 8 9 9 9 9 9 9 9 8 8 5 7 7 6 9 11 11 10 9 9 10 9 10
-1 -0 -2 -0 1 1 2 1 1 1 3 8 8 10 10 8 9 8 9 8 8 8 8 8 9 9 9 8 7 8 7 7 6 7 7 8 12 11 11 10 9 11 8 9
-2 -2 -2 -2 -1 0 1 -0 -0 1 2 5 5 9 9 10 10 9 9 8 7 7 8 7 9 8 9 9 9 7 7 7 6 7 7 8 11 12 11 9 10 10 10 8
-2 -2 -2 -2 -2 -2 -1 -1 -1 -1 -0 2 5 6 8 9 9 9 8 7 7 7 7 8 8 8 10 9 11 9 8 8 7 7 7 7 13 12 11 10 11 10 10 8
-2 -2 -2 -2 -2 -2 -2 -2 -1 -1 -2 1 4 5 6 7 9 9 8 8 8 8 7 6 7 7 7 8 8 10 10 10 11 9 9 12 13 13 12 11 9 9 8 7
-2 -2 -2 -2 -2 -2 -2 -2 -2 -2 -1 1 2 5 7 7 8 8 8 7 8 7 8 6 6 6 7 7 8 9 11 12 9 11 13 13 13 12 10 9 7 7 7 7
-2 -2 -3 -3 -3 -3 -3 -2 -2 -2 -2 -1 4 5 6 7 7 8 8 8 8 7 7 6 6 6 7 7 8 8 9 10 10 10 10 13 11 9 8 7 6 6 6 6
-2 -2 -2 -3 -3 -3 -2 -2 -2 -2 -2 -0 2 4 6 6 7 7 7 7 7 6 6 6 6 6 6 7 7 7 9 9 9 9 12 12 9 9 8 7 6 5 5 4
-3 -3 -3 -3 -3 -3 -3 -2 -2 -1 -2 -1 2 5 5 6 6 6 6 6 6 6 6 6 6 7 6 6 7 10 11 11 12 11 11 10 9 9 7 6 5 4 4 4
-3 -3 -3 -3 -3 -3 -3 -2 -2 -2 -2 -1 2 5 4 5 5 5 5 5 5 5 5 5 6 7 6 6 6 9 11 11 11 11 11 10 9 8 7 6 5 4 3 3
-2 -2 -2 -1 -2 -2 -3 -2 -3 -2 -2 -1 2 4 5 5 5 5 5 5 5 5 6 5 5 6 6 6 7 9 9 10 10 10 10 9 9 8 7 6 5 4 3 2
-1 -0 -1 -1 -2 -2 -2 -2 -2 -2 -1 -0 3 4 5 5 5 5 5 5 5 6 5 5 5 6 6 7 7 9 10 9 9 9 9 8 7 7 6 5 4 5 3 3
-0 -1 -1 -1 -1 -1 -1 -1 -1 -1 -0 0 3 6 5 6 5 5 6 5 6 5 6 5 5 6 8 8 8 8 8 8 9 8 7 6 5 5 5 5 4 4 4 4
-1 -2 -2 -2 -2 -1 -1 -1 -0 0 2 3 5 6 6 5 6 6 5 4 3 5 5 5 5 7 7 6 6 6 5 6 6 7 7 8 7 7 6 4 4 4 5 5
-2 -3 -2 -1 -1 -1 0 1 1 2 4 4 5 5 5 4 5 5 5 4 3 5 4 4 5 5 4 3 3 3 3 4 5 6 6 7 7 7 6 4 4 4 5 4
-3 -3 -3 -1 -0 1 2 2 3 3 1 1 2 3 4 5 5 4 4 4 5 4 4 5 2 2 2 2 1 2 2 3 4 5 6 6 6 5 5 4 4 4 4 4
-3 -3 -1 0 2 1 1 1 1 -0 0 1 2 3 3 4 3 3 4 5 3 4 4 3 2 1 1 1 1 1 2 2 3 5 5 5 5 5 4 4 5 4 4 4
-3 -3 -0 0 -0 -1 -1 -1 -0 -0 0 1 2 2 3 2 3 3 3 4 4 5 3 2 1 0 0 1 1 1 2 2 2 4 4 5 4 4 4 3 4 4 4 4
-3 -3 -2 -1 -1 -1 -1 -1 -1 -0 -0 1 1 2 3 3 3 3 4 4 4 3 -2 -0 -1 -1 -1 -1 0 1 1 2 2 2 2 2 3 3 3 3 3 3 4 4
-3 -2 -2 -1 -2 -1 -1 -0 -0 -1 0 1 0 3 4 1 3 3 3 4 0 -2 -2 -2 -1 -1 -1 -1 0 1 1 1 1 2 2 1 2 2 2 2 1 2 3 3

GFSNW_850_temp_024.txt.gz
Temp
-0 2 2 3 5 4 5 4 -0 3 4 3 3 3 3 5 7 8 9 8 7 7 7 6 7 6 7 9 8 7 9 6 2 5 7 7 7 6 5 3 3 2 2 5
2 3 3 4 5 5 4 4 3 5 4 2 4 4 5 6 7 8 10 9 9 8 7 6 7 8 9 9 8 7 8 5 2 6 7 6 6 6 7 6 6 3 5 6
2 3 3 4 5 5 4 4 0 5 5 4 5 5 5 7 9 9 9 8 8 9 9 9 8 8 8 9 9 10 9 5 3 4 4 5 4 6 6 6 3 5 5 8
2 2 2 3 4 5 4 4 2 3 1 4 4 5 6 7 8 9 9 9 9 9 9 8 7 7 7 8 9 8 7 3 3 5 5 5 5 6 6 4 6 5 8 8
2 2 2 3 3 4 4 3 2 2 2 4 5 6 7 7 8 8 8 8 9 9 8 8 7 7 7 7 7 7 6 1 4 4 5 5 4 5 6 7 7 8 7 7
-0 2 2 2 3 3 2 3 2 2 4 3 5 6 8 8 8 9 9 9 8 7 8 8 9 9 9 7 6 5 5 3 3 3 6 5 5 5 6 7 8 7 7 9
-1 -1 2 2 1 2 1 2 2 2 3 3 5 6 8 9 8 8 8 9 8 8 8 9 9 9 8 8 7 7 6 4 5 4 4 5 9 9 9 8 8 8 7 8
-1 -2 -1 0 1 1 1 -0 1 1 3 3 4 5 8 8 8 8 8 8 8 8 9 7 6 6 9 8 7 7 7 5 5 6 6 7 9 9 8 7 8 8 7 8
-1 -2 -2 -2 -1 -0 0 -1 -0 1 1 2 3 5 7 5 5 6 7 7 8 8 6 6 6 6 7 7 6 7 6 6 6 6 6 6 9 10 9 9 7 9 8 7
-1 -1 -2 -2 -2 -2 -1 -1 -1 -0 0 1 3 3 5 7 6 5 6 7 7 7 5 6 6 5 8 7 7 6 6 6 6 7 7 6 8 9 9 9 9 9 9 8
-2 -2 -2 -2 -2 -2 -2 -2 -2 -2 -2 1 2 2 4 5 7 6 6 6 6 4 5 5 6 5 6 7 7 7 7 7 7 7 7 6 9 8 9 10 10 9 9 8
-1 -1 -2 -2 -2 -2 -2 -3 -3 -3 -3 -1 1 1 2 3 5 5 6 7 6 6 4 4 4 5 5 5 6 7 7 7 7 6 7 9 10 11 11 10 9 8 7 7
-1 -1 -2 -2 -2 -2 -2 -2 -3 -3 -3 -2 -1 3 5 4 4 5 5 7 7 7 7 4 5 6 6 6 6 7 8 9 9 8 9 8 10 11 10 9 8 8 7 7
-1 -2 -2 -2 -2 -2 -2 -3 -3 -3 -3 -3 -1 0 1 3 4 5 6 6 7 7 7 5 4 5 6 7 5 5 6 7 8 7 7 10 9 10 10 9 8 7 6 6
-1 -2 -2 -2 -2 -2 -2 -3 -3 -3 -3 -3 -2 -0 3 3 5 5 6 7 8 7 6 5 5 5 5 5 6 6 6 5 6 6 9 10 10 10 10 9 8 7 6 5
-1 -2 -2 -3 -2 -2 -3 -3 -3 -3 -3 -3 -3 -1 2 4 4 6 7 7 7 7 7 6 6 6 6 5 6 7 8 8 8 7 8 9 9 9 10 9 8 7 5 5
-2 -2 -3 -3 -2 -2 -3 -2 -3 -3 -3 -3 -2 -1 2 4 5 6 6 7 6 6 6 5 6 6 6 5 6 8 7 6 7 7 7 8 9 9 9 8 7 6 5 4
-1 -1 -1 -1 -2 -2 -2 -3 -2 -2 -3 -2 -1 -0 4 5 5 5 5 5 5 6 6 5 5 5 6 5 6 6 5 6 6 7 7 8 8 8 8 8 6 6 5 4
-1 -1 -1 -2 -2 -2 -2 -2 -3 -3 -3 -2 -1 2 4 5 5 4 5 5 5 5 5 5 5 5 6 4 3 3 2 2 3 4 5 6 7 7 7 6 5 5 4 3
-1 -2 -2 -2 -2 -2 -2 -2 -2 -2 -2 -3 -1 1 4 5 5 4 5 4 5 5 5 5 5 5 4 3 2 1 1 1 1 1 4 5 6 6 6 6 5 5 4 3
-1 -2 -3 -2 -2 -2 -1 -1 -2 -1 0 -1 0 3 4 5 5 5 4 3 3 5 4 5 4 6 3 1 1 1 1 1 2 2 3 4 5 5 6 5 4 4 4 4
-2 -3 -3 -2 -2 -2 -1 0 0 1 3 2 3 3 4 4 5 4 4 3 2 5 3 4 4 3 1 1 1 1 0 1 1 2 3 4 5 5 6 5 5 4 4 4
-3 -3 -3 -3 -1 -1 0 2 2 2 0 1 2 2 3 4 5 3 3 4 4 3 3 4 3 -0 -0 -0 -0 1 0 1 2 2 3 4 5 5 5 5 4 3 4 3
-3 -3 -2 -2 -1 -0 -0 -0 0 -0 -0 0 1 2 2 2 2 3 4 4 3 3 3 4 0 -1 -1 -1 -1 -1 1 1 1 2 2 3 4 5 4 3 3 3 3 3
-3 -3 -3 -2 -0 -0 -0 -0 -0 -0 -0 0 1 2 3 1 2 3 2 3 3 4 4 1 -1 -1 -1 -1 -1 -1 -0 1 2 2 3 3 3 3 3 3 2 2 2 2
-4 -3 -4 -2 -2 -1 -1 -0 -1 -0 -0 0 1 1 2 3 2 3 3 4 4 1 -1 -1 -2 -1 -0 -0 -0 -0 -0 -0 1 1 1 2 2 2 1 2 2 2 2 1
-4 -4 -3 -2 -3 -2 -1 -1 -1 -1 -1 1 0 2 3 1 3 2 2 3 0 -2 -2 -2 -1 -1 -1 -0 0 1 1 1 1 1 1 1 1 1 1 1 1 1 1 2

GFSNW_850_temp_027.txt.gz
Temp
4 3 4 4 6 6 6 5 0 5 5 2 3 4 4 5 6 8 8 7 7 7 6 6 6 6 7 8 7 7 8 4 2 6 7 6 6 5 4 3 3 1 2 5
4 4 4 4 5 6 5 5 4 6 6 2 5 4 4 5 7 8 8 8 8 7 6 6 6 6 8 8 7 7 7 3 1 4 6 6 6 6 5 5 3 1 3 6
4 4 4 4 5 4 5 5 1 5 5 4 5 4 5 6 8 8 8 7 8 7 7 7 6 7 7 8 8 9 9 5 3 4 4 4 3 5 5 5 2 4 5 6
4 4 4 4 4 4 4 4 1 2 2 3 3 4 6 7 7 8 9 8 8 9 7 7 6 7 7 8 9 8 7 3 2 4 5 5 5 6 5 3 5 5 7 6
2 3 4 3 4 4 4 2 2 3 2 3 3 4 7 7 7 7 8 8 9 9 8 8 6 6 7 8 7 7 5 2 4 3 4 4 4 5 5 5 6 6 6 6
1 2 3 3 3 3 2 1 1 2 3 2 4 5 6 8 8 8 8 8 7 7 8 7 9 9 9 7 6 5 5 4 4 4 4 4 5 5 5 5 6 6 5 8
-1 -0 2 2 1 1 1 -0 1 2 2 2 4 4 5 7 8 8 8 8 8 8 8 8 9 8 7 7 7 6 4 5 4 4 4 5 8 7 7 7 7 6 7 8
-1 -1 -1 0 -0 -0 1 1 1 1 3 3 3 4 4 7 7 7 7 7 8 8 8 6 6 7 8 8 7 7 7 6 5 5 6 6 9 7 7 7 8 7 7 8
-1 -1 -1 -2 -1 -1 -1 0 -0 -0 1 2 2 3 4 4 5 5 7 7 7 8 5 6 6 5 6 6 6 6 6 6 6 6 6 5 9 9 9 8 8 8 7 7
-1 -1 -1 -1 -2 -2 -1 -1 -1 -1 -1 0 1 2 3 5 5 4 5 7 7 7 4 5 5 4 7 7 7 6 6 6 6 6 7 6 7 9 9 9 9 10 9 9
-0 -1 -1 -1 -2 -2 -2 -2 -2 -2 -2 0 1 1 1 2 4 4 6 5 5 4 5 5 5 5 5 5 6 5 7 6 7 6 7 6 9 8 9 9 10 9 8 8
-1 -1 -1 -1 -2 -2 -2 -2 -3 -3 -3 -1 -0 -0 0 1 3 1 4 6 5 6 3 3 4 5 4 5 5 5 7 6 5 6 7 8 9 10 11 10 9 8 7 7
-1 -1 -1 -1 -2 -2 -2 -2 -2 -3 -3 -3 -3 -0 2 1 3 2 1 5 7 7 7 4 3 5 4 4 4 6 7 8 8 7 9 7 10 11 10 10 9 8 7 7
-2 -1 -1 -2 -2 -2 -2 -2 -2 -2 -3 -4 -2 -0 -1 0 0 1 2 4 5 6 7 5 3 5 5 5 5 6 5 6 6 6 7 9 10 9 10 10 10 9 7 7
-2 -1 -1 -2 -2 -2 -2 -2 -2 -3 -3 -4 -3 -2 2 3 2 1 3 4 3 6 6 4 5 5 4 3 4 4 5 5 5 5 7 7 8 9 9 9 10 9 8 7
-1 -1 -1 -2 -2 -3 -3 -3 -3 -3 -3 -3 -4 -2 0 2 3 3 3 4 4 6 6 5 6 6 6 5 5 7 7 7 7 6 6 6 7 8 8 9 9 8 8 7
-1 -1 -2 -2 -2 -3 -3 -2 -3 -3 -3 -3 -3 -2 -0 2 2 3 4 4 5 7 7 5 6 6 6 6 6 7 6 7 7 6 5 6 8 8 9 9 8 8 7 6
-1 -1 -1 -2 -2 -2 -3 -3 -3 -3 -3 -3 -2 -1 0 3 3 5 5 5 6 6 5 5 5 5 5 5 4 4 4 6 7 5 5 5 6 7 7 7 7 7 6 6
-2 -1 -2 -2 -2 -2 -2 -2 -2 -3 -3 -3 -2 -0 4 4 5 5 5 6 5 5 5 5 5 5 5 3 2 3 2 2 2 3 3 4 5 5 6 7 6 6 5 5
-1 -2 -2 -2 -2 -2 -2 -2 -3 -3 -3 -3 -2 -1 3 5 5 4 5 5 5 3 5 5 4 5 3 2 2 2 1 0 0 -0 1 3 4 4 5 6 6 5 5 4
-2 -2 -3 -2 -2 -2 -2 -1 -2 -1 -1 -2 -1 1 4 4 5 5 5 3 3 4 4 5 4 5 3 2 2 1 0 0 0 0 1 1 2 3 4 5 5 5 4 4
-2 -3 -3 -3 -2 -2 -1 -0 -0 1 2 1 2 2 3 4 5 3 3 3 2 4 3 4 4 2 0 0 1 1 1 0 1 1 1 2 3 4 5 5 5 5 4 4
-3 -3 -3 -3 -2 -1 -0 0 2 2 0 0 1 2 3 4 4 2 2 4 4 2 3 4 3 -0 -0 0 1 1 0 0 -0 0 1 2 3 4 4 5 5 4 4 3
-4 -3 -2 -2 -2 -1 -3 -1 -2 -0 -0 0 0 2 2 2 2 3 4 3 3 3 3 4 -1 -1 -0 -0 -0 1 0 -0 -0 0 1 2 2 2 3 4 3 3 3 3
-4 -4 -4 -5 -1 -1 -0 -1 -1 -1 -0 0 1 2 2 1 3 2 2 3 3 4 3 -1 -1 -0 -0 -1 -0 0 1 0 0 0 0 1 1 2 2 2 2 1 0 0
-4 -4 -4 -2 -3 -2 -1 -0 -1 -1 -0 0 0 1 2 3 2 3 3 3 4 1 -4 -1 -1 -0 -0 -1 -0 -0 -0 0 1 1 1 1 2 2 2 2 1 1 0 0
-4 -4 -3 -3 -3 -3 -2 -1 -1 -1 -1 1 0 2 4 1 2 2 2 3 0 -2 -1 -1 -1 -0 -1 -1 -0 0 0 1 1 1 1 1 1 1 1 1 1 1 1 1